ARIANE 42P DEB, 44508

Orbit data source: Space-Track

ARIANE 42P DEB, 44508 is space debris in LEO originally from a launch on Mon, 10 Aug 1992 UTC launched from the French Guiana (FRGUI). Debris objects in space refer to the collection of defunct objects orbiting the Earth. Examples of debris include non-operational satellites, rocket bodies, and fragments generated from explosions, collisions, or faulty payload assembly.

Loading next visibility...
Identifier
44508, 1992-052F
Orbit
LEO
Country
Flag of FRFR
Related business
Manufacturer
ArianeGroup
Mission
Spacecraft
Bus & Motor
Unknown
Mass
Unknown
Launch date (UTC)
1992-08-10 (33 years ago)
Launch vehicle
Unknown
Launch site
French Guiana (FRGUI)
Object type
Payload
Rocket body
Debris
Shape & HBR
Unknown
Radar Cross Section
Small (<0.1 m²)

Expand to show TLE details & history
Last TLE update: 2 days ago

TLE from 2 days ago
0 ARIANE 42P DEB
1 44508U 92052F   25259.29547787  .00003664  00000-0  14169-1 0  9992
2 44508  66.0262 220.1811 0353736  48.7757 314.3175 12.71994610 68317
Epoch: 2025-09-16T07:05Z
TLE epoch observation values (Epoch: 2025-09-16T07:05:29.287Z)
Latitude
-0.00007°
Longitude
118.32121°
Altitude
1,189.283 km
Speed
7.346 km/s
True Right ascension
14h 40m 43s
True Declination
0° 00' 00"
Sunlit
Object was in daylight at epoch
Visualization orbit readout
Latitude
Unknown
Longitude
Unknown
Altitude
Unknown
Speed
Unknown
Apparent Right ascension
Unknown
Apparent Declination
Unknown
Sunlit
N/A
Visualization observer readout
Local Sidereal Time
15:40:06
Azimuth
Unknown
Elevation
Unknown
Doppler factor
Unknown
Orbital elements
Apogee altitude
1,646.558 km
Perigee altitude
1,098.23 km
Semi-major axis
7,750.531 km
Eccentricity
0.03537
Inclination
66.0262°
RAAN
220.1811°
Arg. of periapsis
48.7757°
True anomaly
311.32633°
Mean anomaly
314.3175°
Eccentric anomaly
312.83116°
Mean motion
3.18087 °/min
Orbital period
113.18 mins
BSTAR
0.014169
Loading maneuver chart data...
Computing Atmospheric mass density...
Loading historical data...
Loading historical data...
Loading historical data...
Loading historical data...
Loading historical data...
Loading historical data...
Loading historical data...

Documentation

Showing up to 5 results
|